Location: Melbourne
(37.8666°S, 145.1333°E)
Time: 13:29:46
(UTC+10:00)

Hubble Space Telescope - Visible Passes

Search period start: 30 June 2015 00:00
Search period end: 10 July 2015 00:00
Orbit: 542 x 546 km, 28.5° (Epoch: 28 June)

Date Brightness Start Highest point End Pass type
(mag) Time Alt. Az. Time Alt. Az. Time Alt. Az.
30 Jun 3.3 04:57:25 17° NNE 04:57:25 17° NNE 04:58:53 10° NE visible
30 Jun 3.2 06:33:58 10° NW 06:36:19 15° NNW 06:38:37 10° NNE visible
01 Jul 3.6 04:49:09 14° NE 04:49:09 14° NE 04:49:56 10° NE visible
01 Jul 3.2 06:25:38 10° NW 06:27:25 12° NNW 06:29:08 10° N visible
02 Jul 3.9 04:40:53 10° NE 04:40:53 10° NE 04:40:56 10° NE visible
02 Jul 3.4 06:18:08 10° NNW 06:18:30 10° NNW 06:18:45 10° NNW visible
